Simultaneous Nadir Overpasses (SNOs) Predictions

Prediction of SNOs between LANDSAT-8 and METOP-B Satellite Orbit:

Table of predicted SNOs for the next 14.0 days since TLE Epoch: 7/28/2017
Index Date (LANDSAT-8) Time (LANDSAT-8) Lat,Lon (LANDSAT-8) SZA (LANDSAT-8 ) Date (METOP-B) Time (METOP-B) Lat,Lon (METOP-B) SZA (METOP-B ) Distance(km) Time Diff (sec)
1 07/31/2017 08:45:29 -81.18, -90.39 114.92 07/31/2017 08:45:05 -81.18, -90.51 114.95 1.96 24
2 07/31/2017 09:34:54 81.21, 77.71 65.16 07/31/2017 09:35:43 81.22, 77.86 65.20 2.63 49
3 08/03/2017 04:19:45 -81.19, -23.78 114.18 08/03/2017 04:19:25 -81.19, -23.97 114.21 3.24 20
4 08/03/2017 05:09:10 81.22, 144.29 65.90 08/03/2017 05:10:03 81.22, 144.36 65.93 1.16 53
5 08/05/2017 23:54:01 -81.20, 42.79 113.40 08/05/2017 23:53:44 -81.20, 42.94 113.39 2.40 17
6 08/06/2017 00:43:27 81.20,-149.53 66.62 08/06/2017 00:44:24 81.21,-149.55 66.65 0.52 57
7 08/08/2017 19:28:16 -81.21, 109.34 112.59 08/08/2017 19:28:03 -81.21, 109.45 112.58 1.84 13
8 08/08/2017 20:17:42 81.21, -83.01 67.43 08/08/2017 20:18:43 81.21, -83.07 67.45 1.09 61
9 08/11/2017 15:02:33 -81.19, 175.49 111.80 08/11/2017 15:02:24 -81.20, 175.57 111.79 1.49 9




NCC Satellite Simultaneous Nadir Overpasses (SNOs) Prediction Service
